This is the latest recevied weather packets stored in our database for station/object N4XWC. If no packets are shown the sender has not sent any weather packets the latest 1 day(s).
| Time | Temp. | Humidity | Pressure | Rain* | Wind** | Luminosity | Snow |
|---|---|---|---|---|---|---|---|
| 1777999934 | 22.22° C | 64% | 1014.3 hPa | 0 mm | 0.89 m/s, 264° | - | - |
| 1777999783 | 21.67° C | 64% | 1014.3 hPa | 0 mm | 0.89 m/s, 268° | - | - |
| 1777999484 | 21.67° C | 64% | 1014.2 hPa | 0 mm | 1.34 m/s, 267° | - | - |
| 1777999334 | 21.67° C | 63% | 1014.2 hPa | 0 mm | 0.45 m/s, 285° | - | - |
| 1777999183 | 21.67° C | 62% | 1014.2 hPa | 0 mm | 0.45 m/s, 233° | - | - |
| 1777998884 | 21.67° C | 63% | 1014.2 hPa | 0 mm | 2.24 m/s, 256° | - | - |
| 1777998735 | 21.67° C | 62% | 1014.2 hPa | 0 mm | 1.34 m/s, 219° | - | - |
| 1777998583 | 21.67° C | 63% | 1014.2 hPa | 0 mm | 0 m/s | - | - |
| 1777998283 | 21.67° C | 64% | 1014.2 hPa | 0 mm | 1.34 m/s, 203° | - | - |
| 1777998134 | 21.67° C | 63% | 1014.2 hPa | 0 mm | 1.34 m/s, 244° | - | - |
| 1777997984 | 21.67° C | 63% | 1014.2 hPa | 0 mm | 1.79 m/s, 208° | - | - |
| 1777997683 | 21.67° C | 62% | 1014.2 hPa | 0 mm | 0.89 m/s, 253° | - | - |
| 1777997383 | 21.67° C | 64% | 1014.2 hPa | 0 mm | 0.45 m/s, 188° | - | - |
| 1777997083 | 21.67° C | 64% | 1014.2 hPa | 0 mm | 1.79 m/s, 239° | - | - |
| 1777996936 | 21.11° C | 63% | 1014.2 hPa | 0 mm | 1.79 m/s, 224° | - | - |
| 1777996784 | 21.11° C | 62% | 1014.3 hPa | 0 mm | 0.45 m/s, 222° | - | - |
| 1777996483 | 21.11° C | 64% | 1014.3 hPa | 0 mm | 0.89 m/s, 208° | - | - |
| 1777996335 | 21.11° C | 64% | 1014.3 hPa | 0 mm | 0.45 m/s, 219° | - | - |
| 1777996183 | 21.11° C | 63% | 1014.3 hPa | 0 mm | 0.89 m/s, 224° | - | - |
| 1777995884 | 21.11° C | 65% | 1014.3 hPa | 0 mm | 1.34 m/s, 257° | - | - |
| 1777995733 | 21.11° C | 64% | 1014.3 hPa | 0 mm | 0.45 m/s, 253° | - | - |
| 1777995584 | 21.11° C | 65% | 1014.3 hPa | 0 mm | 0 m/s | - | - |
| 1777995285 | 21.11° C | 64% | 1014.3 hPa | 0 mm | 1.34 m/s, 198° | - | - |
| 1777995134 | 21.11° C | 66% | 1014.3 hPa | 0 mm | 1.34 m/s, 212° | - | - |
| 1777994984 | 20.56° C | 65% | 1014.2 hPa | 0 mm | 0.89 m/s, 246° | - | - |
* Rain latest hour (hover to see other rain measurements)
** Current wind speed in m/s (hover to see current wind gust speed)